VE3DVC Weather Reports


Display with metric or nautical units.
time (UTC)temp
F
wind
direction
speed
MPH
gust
MPH
rain 1hr
in
rain 24hr
in
rain mn
in
humidity
%
barometer
mb
20260906082036 60 0 0.0 0.0 0.00 0.01 0.00 92 1016.4
20260906080836 60 0 0.0 0.0 0.00 0.01 0.00 92 1016.4
20260906075635 60 0 0.0 0.0 0.00 0.01 0.00 92 1016.3
20260906074436 60 0 0.0 0.0 0.00 0.01 0.00 92 1016.2
20260906073236 61 0 0.0 0.0 0.00 0.01 0.00 93 1016.3
20260906072036 61 0 0.0 0.0 0.00 0.01 0.00 93 1016.1
20260906070836 61 0 0.0 0.0 0.00 0.01 0.00 92 1016.2
20260906065636 61 0 0.0 0.0 0.00 0.01 0.00 92 1016.2
20260906064436 61 0 0.0 0.0 0.00 0.01 0.00 93 1016.2
20260906063236 61 0 0.0 0.0 0.00 0.01 0.00 93 1016.4
20260906062036 61 0 0.0 0.0 0.00 0.01 0.00 93 1016.4
20260906060836 61 0 0.0 0.0 0.00 0.01 0.00 93 1016.4
20260906055636 61 0 0.0 0.0 0.00 0.01 0.00 93 1016.5
20260906054436 61 0 0.0 0.0 0.00 0.01 0.00 93 1016.5
20260906053236 61 0 0.0 0.0 0.00 0.01 0.00 93 1016.5
20260906052036 61 0 0.0 0.0 0.00 0.01 0.00 93 1016.5
20260906044913 61 0 0.0 0.0 0.00 0.01 0.00 93 1016.2
20260906043714 61 0 0.0 0.0 0.00 0.01 0.00 93 1016.1
20260906042514 62 0 0.0 0.0 0.00 0.01 0.00 92 1016.0
20260906041314 62 0 0.0 0.0 0.00 0.01 0.00 93 1016.0
20260906040114 62 0 0.0 0.0 0.00 0.01 0.00 93 1016.0
20260906034914 62 0 0.0 0.0 0.00 0.01 0.00 93 1015.9
20260906033714 62 0 0.0 0.0 0.00 0.01 0.01 92 1015.9
20260906032514 62 0 0.0 0.0 0.00 0.01 0.01 93 1015.8
20260906031314 63 0 0.0 0.0 0.00 0.01 0.01 93 1015.8
20260906030113 63 0 0.0 0.0 0.00 0.01 0.01 93 1015.7
20260906021713 63 0 0.0 0.0 0.00 0.01 0.01 93 1015.5
20260906020513 64 0 0.0 0.0 0.00 0.01 0.01 92 1015.5
20260906015007 64 0 0.0 0.0 0.00 0.01 0.01 92 1015.4
20260906013806 64 0 0.0 0.0 0.00 0.01 0.01 92 1015.4
20260906012606 65 0 0.0 0.0 0.00 0.01 0.01 92 1015.2
20260906011407 65 0 0.0 0.0 0.00 0.01 0.01 92 1015.3
20260906010207 65 0 0.0 0.0 0.00 0.01 0.01 92 1015.2
20260906005006 66 0 0.0 0.0 0.00 0.01 0.01 92 1015.1
20260906003807 66 0 0.0 0.0 0.00 0.00 0.00 91 1015.2
20260906002607 67 0 0.0 0.0 0.00 0.00 0.00 90 1015.1
20260906001407 67 0 0.0 0.0 0.00 0.00 0.00 90 1014.8
20260906000207 68 0 0.0 0.0 0.00 0.00 0.00 89 1014.8
20260905235007 69 0 0.0 0.0 0.00 0.00 0.00 89 1014.8
20260905233806 69 0 0.0 0.0 0.00 0.00 0.00 89 1014.8
20260905232606 69 0 0.0 0.0 0.00 0.00 0.00 89 1014.7
20260905231407 70 0 0.0 0.0 0.00 0.00 0.00 88 1014.7
20260905230207 70 0 0.0 0.0 0.00 0.00 0.00 87 1014.7
20260905225007 71 0 0.0 0.0 0.00 0.00 0.00 86 1014.8
20260905223807 71 0 0.0 0.0 0.00 0.00 0.00 86 1014.8
20260905222606 71 0 0.0 0.0 0.00 0.00 0.00 84 1014.9
20260905221406 72 0 0.0 0.0 0.00 0.00 0.00 84 1014.8
20260905220207 72 0 0.0 0.0 0.00 0.00 0.00 84 1014.8
20260905215007 72 0 0.0 0.0 0.00 0.00 0.00 84 1014.7
20260905213807 72 0 0.0 0.0 0.00 0.00 0.00 83 1014.6
20260905212606 72 0 0.0 0.0 0.00 0.00 0.00 80 1014.4
20260905211407 72 0 0.0 0.0 0.00 0.00 0.00 85 1014.5
20260905210206 73 0 0.0 1.0 0.00 0.00 0.00 82 1014.3
20260905205008 73 0 0.0 0.0 0.00 0.00 0.00 81 1014.4
20260905203806 74 0 0.0 2.0 0.00 0.00 0.00 78 1014.4
20260905202136 74 0 0.0 0.0 0.00 0.00 0.00 78 1014.3
20260905200936 75 0 0.0 0.0 0.00 0.00 0.00 77 1014.3
20260905195011 75 0 0.0 3.0 0.00 0.00 0.00 72 1014.6
20260905193811 76 0 0.0 1.0 0.00 0.00 0.00 75 1014.6
20260905192611 76 0 0.0 1.0 0.00 0.00 0.00 75 1014.5
20260905191411 76 0 0.0 2.0 0.00 0.00 0.00 74 1014.6
20260905190212 76 0 0.0 3.0 0.00 0.00 0.00 77 1014.8
20260905185010 75 0 0.0 0.0 0.00 0.00 0.00 77 1015.0
20260905183811 75 0 0.0 0.0 0.00 0.00 0.00 69 1015.0
20260905182611 76 0 0.0 0.0 0.00 0.00 0.00 70 1015.0
20260905180335 75 0 0.0 3.0 0.00 0.00 0.00 70 1015.2
20260905175136 74 0 0.0 2.0 0.00 0.00 0.00 68 1015.1
20260905171640 72 0 0.0 0.0 0.00 0.00 0.00 77 1015.2
20260905170440 72 0 0.0 0.0 0.00 0.00 0.00 74 1015.4
20260905165242 72 0 0.0 0.0 0.00 0.00 0.00 76 1015.3
20260905164040 72 0 0.0 2.0 0.00 0.00 0.00 72 1015.3
20260905162840 72 0 0.0 1.0 0.00 0.00 0.00 74 1015.3
20260905161641 72 0 0.0 1.0 0.00 0.00 0.00 77 1015.3
20260905160440 71 0 0.0 1.0 0.00 0.00 0.00 77 1015.3
20260905155241 71 0 0.0 2.0 0.00 0.00 0.00 81 1015.3
20260905154040 70 0 0.0 1.0 0.00 0.00 0.00 79 1015.4
20260905152840 70 0 0.0 1.0 0.00 0.00 0.00 79 1015.4
20260905150647 69 0 0.0 2.0 0.00 0.00 0.00 82 1015.3
20260905145448 68 0 0.0 0.0 0.00 0.00 0.00 83 1015.2
20260905144248 68 0 0.0 1.0 0.00 0.00 0.00 83 1015.3
20260905143047 68 0 0.0 1.0 0.00 0.00 0.00 86 1015.2
20260905141848 67 0 0.0 1.0 0.00 0.00 0.00 87 1015.2
20260905140647 67 0 0.0 3.0 0.00 0.00 0.00 88 1015.1
20260905135447 65 0 0.0 1.0 0.00 0.00 0.00 92 1015.1
20260905134247 65 0 0.0 1.0 0.00 0.00 0.00 93 1015.1
20260905133048 64 0 0.0 1.0 0.00 0.00 0.00 93 1015.2
20260905131848 64 0 0.0 0.0 0.00 0.00 0.00 92 1015.3
20260905130647 63 0 0.0 0.0 0.00 0.00 0.00 93 1015.3
20260905125447 63 0 0.0 0.0 0.00 0.00 0.00 93 1015.4
20260905124248 63 0 0.0 0.0 0.00 0.00 0.00 93 1015.4
20260905123047 62 0 0.0 0.0 0.00 0.00 0.00 93 1015.3
20260905121848 62 0 0.0 0.0 0.00 0.00 0.00 93 1015.4
20260905120647 61 0 0.0 0.0 0.00 0.00 0.00 93 1015.4
20260905115447 61 0 0.0 0.0 0.00 0.00 0.00 93 1015.3
20260905114247 61 0 0.0 0.0 0.00 0.00 0.00 93 1015.3
20260905113048 61 0 0.0 0.0 0.00 0.00 0.00 93 1015.3
20260905111847 61 0 0.0 0.0 0.00 0.00 0.00 93 1015.2
20260905104412 61 0 0.0 0.0 0.00 0.00 0.00 93 1014.9
20260905103213 62 0 0.0 0.0 0.00 0.00 0.00 93 1014.6
20260905102012 62 0 0.0 0.0 0.00 0.00 0.00 92 1014.4
20260905100812 62 0 0.0 0.0 0.00 0.00 0.00 92 1014.3
20260905095612 63 0 0.0 0.0 0.00 0.00 0.00 92 1014.1
20260905094412 63 0 0.0 0.0 0.00 0.00 0.00 92 1014.2
20260905093212 64 0 0.0 0.0 0.00 0.00 0.00 92 1014.2
20260905092013 64 0 0.0 0.0 0.00 0.00 0.00 92 1014.3
20260905090241 64 0 0.0 0.0 0.00 0.00 0.00 91 1014.5
20260905085042 65 0 0.0 0.0 0.00 0.00 0.00 91 1014.6
20260905083813 65 0 0.0 0.0 0.00 0.00 0.00 91 1014.5